Hourly Weather Senkov

Today, 29 November, Sunday

Time Temperature Precipitation Wind Pressure Humidity
00:00 -2°C° 0.1 mm 4 mps 748 mmHg 93%
01:00 -2°C° 0.1 mm 4 mps 748 mmHg 93%
02:00 -2°C° 0.1 mm 5 mps 747 mmHg 93%
03:00 -2°C° 0.2 mm 5 mps 747 mmHg 94%
04:00 -2°C° 0.2 mm 5 mps 746 mmHg 95%
05:00 -2°C° 0.2 mm 5 mps 746 mmHg 97%
06:00 -2°C° 0.5 mm 4 mps 746 mmHg 97%
07:00 -2°C° 0.5 mm 4 mps 746 mmHg 97%
08:00 -2°C° 0.5 mm 4 mps 746 mmHg 97%
09:00 -1°C° 0.2 mm 3 mps 746 mmHg 97%
10:00 0°C° 0.2 mm 3 mps 746 mmHg 97%
11:00 +1°C° 0.2 mm 2 mps 746 mmHg 97%
12:00 +1°C° 0 mm 2 mps 746 mmHg 95%
13:00 0°C° 0 mm 3 mps 746 mmHg 94%
14:00 0°C° 0 mm 3 mps 746 mmHg 92%
15:00 -1°C° 0 mm 3 mps 746 mmHg 91%
16:00 -1°C° 0 mm 2 mps 747 mmHg 91%
17:00 -1°C° 0 mm 2 mps 747 mmHg 90%
18:00 -1°C° 0 mm 2 mps 747 mmHg 90%
19:00 -1°C° 0 mm 2 mps 747 mmHg 90%
20:00 -1°C° 0 mm 2 mps 748 mmHg 89%
21:00 -1°C° 0 mm 3 mps 748 mmHg 90%
22:00 -2°C° 0 mm 3 mps 748 mmHg 91%
23:00 -2°C° 0 mm 3 mps 748 mmHg 92%

Tomorrow, 30 November, Monday

Time Temperature Precipitation Wind Pressure Humidity
00:00 -2°C° 0 mm 3 mps 748 mmHg 93%
01:00 -2°C° 0 mm 3 mps 749 mmHg 93%
02:00 -2°C° 0 mm 3 mps 749 mmHg 94%
03:00 -2°C° 0 mm 3 mps 749 mmHg 95%
04:00 -2°C° 0 mm 3 mps 748 mmHg 95%
05:00 -2°C° 0 mm 3 mps 748 mmHg 96%
06:00 -4°C° 0 mm 3 mps 748 mmHg 96%
07:00 -3°C° 0 mm 2 mps 749 mmHg 96%
08:00 -3°C° 0 mm 2 mps 749 mmHg 97%
09:00 -4°C° 0 mm 3 mps 749 mmHg 94%
10:00 -2°C° 0 mm 3 mps 749 mmHg 92%
11:00 -2°C° 0 mm 3 mps 749 mmHg 89%
12:00 -2°C° 0 mm 3 mps 749 mmHg 89%
13:00 -2°C° 0 mm 3 mps 749 mmHg 88%
14:00 -2°C° 0 mm 3 mps 750 mmHg 87%
15:00 -2°C° 0 mm 3 mps 750 mmHg 87%
16:00 -2°C° 0 mm 3 mps 750 mmHg 87%
17:00 -2°C° 0 mm 3 mps 750 mmHg 86%
18:00 -2°C° 0 mm 3 mps 750 mmHg 86%
19:00 -2°C° 0 mm 3 mps 750 mmHg 86%
20:00 -2°C° 0 mm 3 mps 751 mmHg 86%
21:00 -2°C° 0 mm 3 mps 751 mmHg 88%
22:00 -3°C° 0 mm 2 mps 751 mmHg 89%
23:00 -3°C° 0 mm 2 mps 751 mmHg 91%

Day after tomorrow, 1 December, Tuesday

Time Temperature Precipitation Wind Pressure Humidity
00:00 -3°C° 0 mm 2 mps 751 mmHg 91%
01:00 -3°C° 0 mm 2 mps 751 mmHg 90%
02:00 -4°C° 0 mm 2 mps 752 mmHg 90%
03:00 -4°C° 0 mm 2 mps 752 mmHg 89%
04:00 -4°C° 0 mm 2 mps 752 mmHg 89%
05:00 -4°C° 0 mm 2 mps 752 mmHg 88%
06:00 -4°C° 0 mm 2 mps 752 mmHg 90%
07:00 -4°C° 0 mm 2 mps 753 mmHg 91%
08:00 -4°C° 0 mm 2 mps 753 mmHg 93%
09:00 -4°C° 0 mm 2 mps 753 mmHg 91%
10:00 -4°C° 0 mm 2 mps 753 mmHg 90%
11:00 -1°C° 0 mm 1 mps 754 mmHg 89%
12:00 -1°C° 0 mm 1 mps 754 mmHg 88%
13:00 -1°C° 0 mm 1 mps 754 mmHg 88%
14:00 -1°C° 0 mm 1 mps 754 mmHg 87%
15:00 -1°C° 0 mm 1 mps 754 mmHg 89%
16:00 -3°C° 0 mm 0 mps 754 mmHg 90%
17:00 -3°C° 0 mm 0 mps 754 mmHg 91%
18:00 -3°C° 0 mm 0 mps 755 mmHg 91%
19:00 -3°C° 0 mm 0 mps 755 mmHg 91%
20:00 -3°C° 0 mm 0 mps 755 mmHg 91%
21:00 -2°C° 0 mm 1 mps 755 mmHg 91%
22:00 -3°C° 0 mm 1 mps 755 mmHg 91%
23:00 -3°C° 0 mm 1 mps 756 mmHg 92%

2 December, Wednesday

Time Temperature Precipitation Wind Pressure Humidity
00:00 -3°C° 0 mm 1 mps 756 mmHg 91%
01:00 -3°C° 0 mm 1 mps 756 mmHg 91%
02:00 -5°C° 0 mm 2 mps 756 mmHg 91%
03:00 -5°C° 0 mm 2 mps 755 mmHg 91%
04:00 -5°C° 0 mm 2 mps 755 mmHg 91%
05:00 -5°C° 0 mm 2 mps 755 mmHg 91%
06:00 -5°C° 0 mm 2 mps 755 mmHg 92%
07:00 -5°C° 0 mm 2 mps 755 mmHg 93%
08:00 -4°C° 0 mm 2 mps 755 mmHg 93%
09:00 -4°C° 0 mm 2 mps 755 mmHg 93%
10:00 -4°C° 0 mm 3 mps 755 mmHg 92%
11:00 -2°C° 0 mm 3 mps 755 mmHg 92%
12:00 -2°C° 0 mm 3 mps 755 mmHg 91%
13:00 -2°C° 0 mm 3 mps 755 mmHg 90%
14:00 -2°C° 0 mm 3 mps 754 mmHg 89%
15:00 -2°C° 0 mm 3 mps 754 mmHg 89%
16:00 -4°C° 0 mm 3 mps 754 mmHg 90%
17:00 -5°C° 0 mm 3 mps 754 mmHg 91%
18:00 -5°C° 0 mm 3 mps 754 mmHg 92%
19:00 -5°C° 0 mm 3 mps 754 mmHg 92%
20:00 -5°C° 0 mm 3 mps 754 mmHg 93%
21:00 -5°C° 0.1 mm 3 mps 754 mmHg 94%
22:00 -5°C° 0.1 mm 3 mps 754 mmHg 94%
23:00 -5°C° 0.1 mm 3 mps 754 mmHg 94%

3 December, Thursday

Time Temperature Precipitation Wind Pressure Humidity
00:00 -5°C° 0 mm 3 mps 753 mmHg 94%
01:00 -5°C° 0 mm 3 mps 753 mmHg 94%
02:00 -5°C° 0 mm 3 mps 753 mmHg 94%
03:00 -5°C° 0.1 mm 3 mps 753 mmHg 94%
04:00 -5°C° 0.1 mm 3 mps 753 mmHg 94%
05:00 -5°C° 0.1 mm 3 mps 752 mmHg 94%
06:00 -5°C° 0.1 mm 3 mps 753 mmHg 94%
07:00 -5°C° 0.1 mm 3 mps 753 mmHg 94%
08:00 -5°C° 0.1 mm 3 mps 753 mmHg 93%
09:00 -5°C° 0.1 mm 4 mps 752 mmHg 93%
10:00 -5°C° 0.1 mm 4 mps 752 mmHg 92%
11:00 -5°C° 0.1 mm 4 mps 752 mmHg 91%
12:00 -4°C° 0 mm 4 mps 752 mmHg 91%
13:00 -4°C° 0 mm 4 mps 752 mmHg 91%
14:00 -4°C° 0 mm 4 mps 752 mmHg 91%
15:00 -4°C° 0 mm 4 mps 752 mmHg 93%
16:00 -4°C° 0 mm 4 mps 752 mmHg 94%
17:00 -4°C° 0 mm 4 mps 752 mmHg 95%
18:00 -4°C° 0 mm 4 mps 752 mmHg 94%
19:00 -4°C° 0 mm 4 mps 752 mmHg 92%
20:00 -4°C° 0 mm 4 mps 751 mmHg 91%
21:00 -4°C° 0 mm 4 mps 751 mmHg 91%
22:00 -4°C° 0 mm 4 mps 752 mmHg 91%
23:00 -5°C° 0 mm 4 mps 752 mmHg 91%

4 December, Friday

Time Temperature Precipitation Wind Pressure Humidity
00:00 -5°C° 0 mm 4 mps 751 mmHg 92%
01:00 -5°C° 0 mm 4 mps 751 mmHg 92%
02:00 -5°C° 0 mm 4 mps 751 mmHg 93%
03:00 -5°C° 0 mm 4 mps 751 mmHg 93%
04:00 -5°C° 0 mm 4 mps 751 mmHg 93%
05:00 -4°C° 0 mm 4 mps 751 mmHg 93%
06:00 -5°C° 0 mm 4 mps 751 mmHg 93%
07:00 -5°C° 0 mm 4 mps 751 mmHg 93%
08:00 -6°C° 0 mm 5 mps 751 mmHg 94%
09:00 -6°C° 0 mm 5 mps 751 mmHg 93%
10:00 -5°C° 0 mm 5 mps 751 mmHg 92%
11:00 -5°C° 0 mm 5 mps 751 mmHg 91%
12:00 -5°C° 0 mm 5 mps 751 mmHg 91%
13:00 -5°C° 0 mm 5 mps 750 mmHg 91%
14:00 -5°C° 0 mm 5 mps 750 mmHg 90%
15:00 -5°C° 0 mm 5 mps 750 mmHg 91%
16:00 -5°C° 0 mm 5 mps 750 mmHg 91%
17:00 -5°C° 0 mm 5 mps 750 mmHg 92%
18:00 -5°C° 0 mm 5 mps 750 mmHg 92%
19:00 -5°C° 0 mm 5 mps 750 mmHg 91%
20:00 -5°C° 0 mm 5 mps 750 mmHg 91%
21:00 -5°C° 0 mm 5 mps 750 mmHg 90%
22:00 -5°C° 0 mm 5 mps 750 mmHg 90%
23:00 -6°C° 0 mm 5 mps 750 mmHg 89%
Show more